Simultaneous Nadir Overpasses (SNOs) Predictions

Prediction of SNOs between METOP-B and TERRA Satellite Orbit:

Table of predicted SNOs for the next 14.0 days since TLE Epoch: 4/1/2023
Index Date (METOP-B) Time (METOP-B) Lat,Lon (METOP-B) SZA (METOP-B ) Date (TERRA) Time (TERRA) Lat,Lon (TERRA) SZA (TERRA ) Distance(km) Time Diff (sec)
1 04/02/2023 03:42:34 80.91, 158.65 77.59 04/02/2023 03:43:15 80.91, 158.53 77.59 2.03 41
2 04/02/2023 04:33:13 -80.94, -33.34 102.34 04/02/2023 04:32:37 -80.93, -33.45 102.37 2.10 36
3 04/04/2023 19:54:15 80.91, -84.33 76.58 04/04/2023 19:54:22 80.91, -84.20 76.60 2.50 7
4 04/04/2023 20:44:54 -80.94, 83.69 103.35 04/04/2023 20:43:44 -80.94, 83.81 103.36 2.13 70
5 04/07/2023 11:15:16 -80.87,-135.34 104.50 04/07/2023 11:16:07 -80.87,-135.19 104.47 2.63 51
6 04/07/2023 12:05:54 80.92, 32.94 75.61 04/07/2023 12:05:27 80.92, 33.08 75.62 2.49 27
7 04/10/2023 03:26:54 -80.91, -17.45 105.38 04/10/2023 03:27:11 -80.90, -17.57 105.39 2.23 17
8 04/10/2023 04:17:32 80.95, 150.82 74.74 04/10/2023 04:16:31 80.95, 150.70 74.70 2.08 61
9 04/12/2023 18:47:56 80.85, -68.80 73.53 04/12/2023 18:48:54 80.85, -68.61 73.57 3.29 58



Historial Predications of SNOs between METOP-B and TERRA
